Regional Weather Roundup
Issued by NWS

Home | Current Version | Previous Version | Text Only | Print | Product List | Glossary On
Versions: 1 2 3 4 5 6 7 8 9 10 11 12 13 14 15 16 17 18 19 20 21 22 23 24 25 26 27 28 29 30 31 32 33 34 35 36 37 38 39 40 41 42 43 44 45 46 47 48 49 50
000
ASUS44 KJAN 250503
RWRMS

MISSISSIPPI HOURLY WEATHER ROUNDUP
NATIONAL WEATHER SERVICE JACKSON MS
1200 AM CDT SAT APR 25 2015

NOTE: "FAIR: INDICATES FEW OR NO CLOUDS BELOW 12,000 FEET WITH NO
SIGNIFICANT WEATHER AND/OR OBSTRUCTIONS TO VISIBILITY.

MSZ001>002-007>008-010>013-018>021-025>028-034>036-250600-
NORTHWEST MISSISSIPPI

CITY           SKY/WX    TMP DP  RH WIND       PRES   REMARKS
CLARKSDALE       N/A     57  57 100 NE9       29.84R
CLEVELAND      TSTM      61  61 100 N23G47    29.79R VSB 3/4
GREENWOOD      CLOUDY    65  61  87 SE10      29.74F
GREENVILLE     TSTM      62  60  93 N16       29.78R VSB 1
OLIVE BRANCH   CLOUDY    54 N/A N/A SE13      29.81F
OXFORD         CLOUDY    55  55 100 NE7       29.84F
TUNICA         TSTM      55  55 100 E13       29.80F
$$

MSZ003>006-009-014>017-022>024-029>033-037>039-250600-
NORTHEAST MISSISSIPPI

CITY           SKY/WX    TMP DP  RH WIND       PRES   REMARKS
COLUMBUS AFB   CLOUDY    61  59  91 S6        29.84R
CORINTH        DRIZZLE   55  54  94 E6        29.85F
GOLDN TRIANGLE CLOUDY    63  57  82 S9        29.84F
STARKVILLE     RAIN      61  59  94 SE8       29.81F
TUPELO         LGT RAIN  59  55  87 NE12      29.85F
$$

MSZ040-058-250600-
CENTRAL MISSISSIPPI

CITY           SKY/WX    TMP DP  RH WIND       PRES   REMARKS
JACKSON INTL   CLOUDY    72  67  84 S10       29.78F
JACKSON HAWKNS CLOUDY    71  68  90 S12       29.79S
MERIDIAN KEY   MOCLDY    67  62  84 S3        29.81F
MERIDIAN NAS   MOCLDY    66  61  84 SE5       29.82F
RAYMOND        CLOUDY    72  66  83 S12       29.79R
VICKSBURG      CLOUDY    73  68  84 SW6       29.79R
$$

MSZ059>079-250600-
SOUTH MISSISSIPPI

CITY           SKY/WX    TMP DP  RH WIND       PRES   REMARKS
BROOKHAVEN     MOCLDY    72  72 100 SE6       29.83R
HATTIESBURG    CLOUDY    73  70  90 S8        29.82F
MCCOMB         CLOUDY    71  70  96 S6        29.81F
NATCHEZ        CLOUDY    72  70  94 S8        29.81R
PINE BELT      CLOUDY    72  66  83 S12       29.82F
$$

MSZ080>082-250600-
COASTAL MISSISSIPPI

CITY           SKY/WX    TMP DP  RH WIND       PRES   REMARKS
BILOXI         PTCLDY    73  70  88 S9        29.82F
PASCAGOULA     CLOUDY    75  73  93 S9        29.83F
GULFPORT       CLEAR     72  67  84 S3        29.81F
$$


USA.gov is the U.S. government's official web portal to all federal, state and local government web resources and services.